| time (UTC) | temp C | wind direction | speed KPH | gust KPH | rain 1hr cm | rain 24hr cm | rain mn cm | humidity % | barometer mb |
| 20260831131553 | -17 | 0.0 | 0.0 | 0.00 | 0.00 | 0.00 | 1012.6 | ||
| 20260831130041 | -17 | 0.0 | 0.0 | 0.00 | 0.00 | 0.00 | 1012.7 | ||
| 20260831124536 | -17 | 0.0 | 0.0 | 0.00 | 0.00 | 0.00 | 1012.8 | ||
| 20260831123026 | -17 | 0.0 | 0.0 | 0.00 | 0.00 | 0.00 | 1012.8 | ||
| 20260831121526 | -17 | 0.0 | 0.0 | 0.00 | 0.00 | 0.00 | 1012.9 | ||
| 20260831120018 | 15 | 57 | 8.0 | 11.3 | 0.00 | 0.00 | 0.00 | 43 | 1013.0 |
| 20260831114516 | 15 | 72 | 8.0 | 9.7 | 0.00 | 0.00 | 0.00 | 42 | 1013.0 |
| 20260831113016 | 14 | 45 | 3.2 | 6.4 | 0.00 | 0.00 | 0.00 | 44 | 1013.1 |
| 20260831111513 | 13 | 42 | 1.6 | 4.8 | 0.00 | 0.00 | 0.00 | 45 | 1013.1 |
| 20260831110014 | 14 | 62 | 1.6 | 4.8 | 0.00 | 0.00 | 0.00 | 41 | 1013.3 |
| 20260831104523 | 15 | 50 | 3.2 | 9.7 | 0.00 | 0.00 | 0.00 | 40 | 1013.3 |
| 20260831103015 | 14 | 38 | 8.0 | 11.3 | 0.00 | 0.00 | 0.00 | 42 | 1013.2 |
| 20260831101507 | 12 | 46 | 6.4 | 9.7 | 0.00 | 0.00 | 0.00 | 45 | 1013.3 |
| 20260831100005 | 12 | 68 | 4.8 | 8.0 | 0.00 | 0.00 | 0.00 | 47 | 1013.4 |
| 20260831094508 | 11 | 57 | 4.8 | 8.0 | 0.00 | 0.00 | 0.00 | 48 | 1013.6 |
| 20260831093005 | 12 | 69 | 3.2 | 8.0 | 0.00 | 0.00 | 0.00 | 46 | 1013.9 |
| 20260831091558 | 11 | 76 | 3.2 | 4.8 | 0.00 | 0.00 | 0.00 | 50 | 1014.1 |
| 20260831090116 | 11 | 73 | 3.2 | 4.8 | 0.00 | 0.00 | 0.00 | 51 | 1014.2 |
| 20260831084555 | 11 | 56 | 3.2 | 4.8 | 0.00 | 0.00 | 0.00 | 50 | 1014.3 |
| 20260831083107 | 11 | 59 | 3.2 | 4.8 | 0.00 | 0.00 | 0.00 | 51 | 1014.3 |
| 20260831081600 | 11 | 64 | 4.8 | 4.8 | 0.00 | 0.00 | 0.00 | 51 | 1014.4 |
| 20260831080124 | 11 | 65 | 3.2 | 4.8 | 0.00 | 0.00 | 0.00 | 51 | 1014.6 |
| 20260831074550 | 11 | 50 | 1.6 | 4.8 | 0.00 | 0.00 | 0.00 | 50 | 1014.6 |
| 20260831073050 | 11 | 50 | 0.0 | 4.8 | 0.00 | 0.00 | 0.00 | 49 | 1014.6 |
| 20260831071548 | 11 | 52 | 1.6 | 4.8 | 0.00 | 0.00 | 0.00 | 50 | 1014.8 |
| 20260831070044 | 11 | 77 | 4.8 | 6.4 | 0.00 | 0.00 | 0.00 | 49 | 1014.8 |
| 20260831064544 | 12 | 73 | 4.8 | 6.4 | 0.00 | 0.00 | 0.00 | 47 | 1014.8 |
| 20260831063046 | 12 | 76 | 4.8 | 4.8 | 0.00 | 0.00 | 0.00 | 46 | 1014.8 |
| 20260831061543 | 12 | 69 | 3.2 | 4.8 | 0.00 | 0.00 | 0.00 | 46 | 1014.9 |
| 20260831060044 | 12 | 11 | 0.0 | 4.8 | 0.00 | 0.00 | 0.00 | 46 | 1015.0 |
| 20260831054541 | 12 | 264 | 0.0 | 1.6 | 0.00 | 0.00 | 0.00 | 46 | 1015.0 |
| 20260831053111 | 12 | 352 | 0.0 | 1.6 | 0.00 | 0.00 | 0.00 | 44 | 1015.0 |
| 20260831051540 | 12 | 326 | 0.0 | 3.2 | 0.00 | 0.00 | 0.00 | 43 | 1015.1 |
| 20260831050039 | 12 | 54 | 0.0 | 3.2 | 0.00 | 0.00 | 0.00 | 40 | 1015.2 |
| 20260831044631 | 12 | 30 | 0.0 | 3.2 | 0.00 | 0.00 | 0.00 | 35 | 1015.2 |
| 20260831043040 | 12 | 72 | 3.2 | 4.8 | 0.00 | 0.00 | 0.00 | 33 | 1015.3 |
| 20260831041539 | 13 | 86 | 4.8 | 6.4 | 0.00 | 0.00 | 0.00 | 31 | 1015.3 |
| 20260831040036 | 13 | 85 | 3.2 | 6.4 | 0.00 | 0.00 | 0.00 | 30 | 1015.4 |
| 20260831034535 | 13 | 86 | 4.8 | 6.4 | 0.00 | 0.00 | 0.00 | 30 | 1015.3 |
| 20260831033051 | 13 | 107 | 0.0 | 3.2 | 0.00 | 0.00 | 0.00 | 28 | 1015.2 |
| 20260831031537 | 13 | 83 | 0.0 | 3.2 | 0.00 | 0.00 | 0.00 | 28 | 1015.0 |
| 20260831030033 | 15 | 91 | 1.6 | 6.4 | 0.00 | 0.00 | 0.00 | 27 | 1014.9 |
| 20260831024533 | 16 | 87 | 0.0 | 4.8 | 0.00 | 0.00 | 0.00 | 26 | 1014.8 |
| 20260831023032 | 18 | 19 | 0.0 | 3.2 | 0.00 | 0.00 | 0.00 | 23 | 1014.7 |
| 20260831021532 | 20 | 344 | 1.6 | 4.8 | 0.00 | 0.00 | 0.00 | 21 | 1014.7 |
| 20260831020031 | 20 | 308 | 1.6 | 6.4 | 0.00 | 0.00 | 0.00 | 22 | 1014.7 |
| 20260831014529 | 21 | 324 | 3.2 | 6.4 | 0.00 | 0.00 | 0.00 | 23 | 1014.7 |
| 20260831013029 | 21 | 23 | 3.2 | 8.0 | 0.00 | 0.00 | 0.00 | 23 | 1014.7 |
| 20260831011528 | 21 | 305 | 6.4 | 11.3 | 0.00 | 0.00 | 0.00 | 24 | 1014.8 |
| 20260831010039 | 21 | 279 | 6.4 | 16.1 | 0.00 | 0.00 | 0.00 | 25 | 1014.9 |
| 20260831004525 | 22 | 281 | 1.6 | 8.0 | 0.00 | 0.00 | 0.00 | 24 | 1014.9 |
| 20260831003024 | 22 | 298 | 9.7 | 14.5 | 0.00 | 0.00 | 0.00 | 24 | 1015.0 |
| 20260831001525 | 22 | 347 | 1.6 | 12.9 | 0.00 | 0.00 | 0.00 | 25 | 1015.0 |
| 20260831000023 | 22 | 301 | 8.0 | 14.5 | 0.00 | 0.00 | 0.00 | 25 | 1015.2 |
| 20260830234520 | 22 | 237 | 9.7 | 22.5 | 0.00 | 0.00 | 0.00 | 25 | 1015.2 |
| 20260830233018 | 22 | 251 | 11.3 | 17.7 | 0.00 | 0.00 | 0.00 | 26 | 1015.4 |
| 20260830231520 | 22 | 301 | 8.0 | 19.3 | 0.00 | 0.00 | 0.00 | 26 | 1015.6 |
| 20260830230015 | 22 | 291 | 14.5 | 24.1 | 0.00 | 0.00 | 0.00 | 26 | 1015.6 |
| 20260830224515 | 22 | 268 | 14.5 | 22.5 | 0.00 | 0.00 | 0.00 | 25 | 1015.7 |
| 20260830223013 | 22 | 270 | 8.0 | 22.5 | 0.00 | 0.00 | 0.00 | 25 | 1015.7 |
| 20260830221510 | 22 | 279 | 11.3 | 17.7 | 0.00 | 0.00 | 0.00 | 25 | 1015.8 |
| 20260830220008 | 21 | 284 | 8.0 | 20.9 | 0.00 | 0.00 | 0.00 | 26 | 1016.0 |
| 20260830214505 | 21 | 227 | 9.7 | 25.7 | 0.00 | 0.00 | 0.00 | 27 | 1016.4 |
| 20260830213002 | 21 | 272 | 4.8 | 19.3 | 0.00 | 0.00 | 0.00 | 28 | 1016.4 |
| 20260830211502 | 21 | 260 | 11.3 | 22.5 | 0.00 | 0.00 | 0.00 | 29 | 1016.5 |
| 20260830210059 | 21 | 270 | 11.3 | 27.4 | 0.00 | 0.00 | 0.00 | 30 | 1016.7 |
| 20260830204559 | 20 | 256 | 19.3 | 27.4 | 0.00 | 0.00 | 0.00 | 30 | 1016.8 |
| 20260830203055 | 20 | 265 | 9.7 | 24.1 | 0.00 | 0.00 | 0.00 | 31 | 1016.9 |
| 20260830201557 | 20 | 278 | 12.9 | 22.5 | 0.00 | 0.00 | 0.00 | 31 | 1017.0 |
| 20260830200051 | 20 | 270 | 17.7 | 27.4 | 0.00 | 0.00 | 0.00 | 33 | 1017.1 |
| 20260830194549 | 19 | 241 | 14.5 | 30.6 | 0.00 | 0.00 | 0.00 | 34 | 1017.3 |
| 20260830193045 | 19 | 211 | 11.3 | 25.7 | 0.00 | 0.00 | 0.00 | 35 | 1017.4 |
| 20260830191543 | 18 | 220 | 8.0 | 20.9 | 0.00 | 0.00 | 0.00 | 36 | 1017.6 |
| 20260830190042 | 18 | 249 | 11.3 | 22.5 | 0.00 | 0.00 | 0.00 | 36 | 1017.6 |
| 20260830184542 | 18 | 240 | 8.0 | 17.7 | 0.00 | 0.00 | 0.00 | 37 | 1018.1 |
| 20260830183036 | 17 | 257 | 12.9 | 20.9 | 0.00 | 0.00 | 0.00 | 38 | 1018.1 |
| 20260830181539 | 17 | 246 | 14.5 | 30.6 | 0.00 | 0.00 | 0.00 | 40 | 1018.2 |
| 20260830180033 | 16 | 235 | 11.3 | 25.7 | 0.00 | 0.00 | 0.00 | 42 | 1018.2 |
| 20260830174529 | 16 | 249 | 14.5 | 22.5 | 0.00 | 0.00 | 0.00 | 43 | 1018.2 |
| 20260830173027 | 16 | 247 | 14.5 | 22.5 | 0.00 | 0.00 | 0.00 | 44 | 1018.2 |
| 20260830171525 | 15 | 279 | 11.3 | 22.5 | 0.00 | 0.00 | 0.00 | 47 | 1018.3 |
| 20260830170023 | 15 | 258 | 12.9 | 22.5 | 0.00 | 0.00 | 0.00 | 48 | 1018.4 |
| 20260830164522 | 15 | 264 | 17.7 | 24.1 | 0.00 | 0.00 | 0.00 | 48 | 1018.5 |
| 20260830163121 | 15 | 281 | 16.1 | 24.1 | 0.00 | 0.00 | 0.00 | 50 | 1018.5 |
| 20260830161518 | 14 | 239 | 14.5 | 20.9 | 0.00 | 0.00 | 0.00 | 52 | 1018.5 |
| 20260830160020 | 14 | 265 | 9.7 | 22.5 | 0.00 | 0.00 | 0.00 | 54 | 1018.5 |
| 20260830154513 | 13 | 229 | 11.3 | 20.9 | 0.00 | 0.00 | 0.00 | 55 | 1018.5 |
| 20260830153009 | 13 | 151 | 8.0 | 14.5 | 0.00 | 0.00 | 0.00 | 56 | 1018.5 |
| 20260830151506 | 12 | 154 | 8.0 | 16.1 | 0.00 | 0.00 | 0.00 | 58 | 1018.4 |
| 20260830150004 | 11 | 109 | 6.4 | 14.5 | 0.00 | 0.00 | 0.00 | 61 | 1018.4 |
| 20260830144558 | 11 | 138 | 6.4 | 11.3 | 0.00 | 0.00 | 0.00 | 64 | 1018.5 |
| 20260830143055 | 10 | 154 | 4.8 | 8.0 | 0.00 | 0.00 | 0.00 | 66 | 1018.4 |
| 20260830141552 | 10 | 102 | 3.2 | 9.7 | 0.00 | 0.00 | 0.00 | 69 | 1018.4 |
| 20260830140049 | 8 | 119 | 4.8 | 8.0 | 0.00 | 0.00 | 0.00 | 72 | 1018.2 |
| 20260830134547 | -17 | 0.0 | 0.0 | 0.00 | 0.00 | 0.00 | 1018.1 | ||
| 20260830133046 | -17 | 0.0 | 0.0 | 0.00 | 0.00 | 0.00 | 1018.2 |